owner,sensor,date,latitude,longitude,vertical_datum,wind_speed,wind_to_direction,wind_speed_of_gust,qcFlag 
TCOON,ioos:station:TCOON:009:1,2019-01-01T00:00:00Z,27.8398,-97.0727,0.0,0.2,96.0,0.6,'11111222,11111222,11111222' 
TCOON,ioos:station:TCOON:009:1,2019-01-01T00:06:00Z,27.8398,-97.0727,0.0,1.4,104.0,1.6,'11111222,11111222,11111222' 
TCOON,ioos:station:TCOON:009:1,2019-01-01T00:12:00Z,27.8398,-97.0727,0.0,1.1,117.0,1.8,'11111222,11111222,11111222' 
TCOON,ioos:station:TCOON:009:1,2019-01-01T00:18:00Z,27.8398,-97.0727,0.0,1.0,123.0,1.1,'11111222,11111222,11111222' 
TCOON,ioos:station:TCOON:009:1,2019-01-01T00:24:00Z,27.8398,-97.0727,0.0,1.0,123.0,1.1,'1111122,1111122,1111122' 
TCOON,ioos:station:TCOON:009:1,2019-01-01T00:30:00Z,27.8398,-97.0727,0.0,0.4,144.0,1.0,'11111222,11111222,11111222' 
TCOON,ioos:station:TCOON:009:1,2019-01-01T00:36:00Z,27.8398,-97.0727,0.0,0.8,144.0,1.1,'11111222,11111222,11111222' 
TCOON,ioos:station:TCOON:009:1,2019-01-01T00:42:00Z,27.8398,-97.0727,0.0,1.0,169.0,1.2,'11111222,11111222,11111222' 
TCOON,ioos:station:TCOON:009:1,2019-01-01T00:48:00Z,27.8398,-97.0727,0.0,1.2,155.0,1.3,'11111222,11111222,11111222' 
TCOON,ioos:station:TCOON:009:1,2019-01-01T00:54:00Z,27.8398,-97.0727,0.0,1.0,157.0,1.6,'11111222,11111222,11111222' 
TCOON,ioos:station:TCOON:009:1,2019-01-01T01:00:00Z,27.8398,-97.0727,0.0,0.5,185.0,0.9,'11111222,11111222,11111222' 
TCOON,ioos:station:TCOON:009:1,2019-01-01T01:06:00Z,27.8398,-97.0727,0.0,0.9,192.0,1.1,'11111222,11111222,11111222' 
TCOON,ioos:station:TCOON:009:1,2019-01-01T01:12:00Z,27.8398,-97.0727,0.0,0.7,204.0,0.9,'11111222,11111222,11111222' 
TCOON,ioos:station:TCOON:009:1,2019-01-01T01:18:00Z,27.8398,-97.0727,0.0,1.2,193.0,1.3,'11111222,11111222,11111222' 
TCOON,ioos:station:TCOON:009:1,2019-01-01T01:24:00Z,27.8398,-97.0727,0.0,1.2,193.0,1.3,'1111122,1111122,1111122' 
TCOON,ioos:station:TCOON:009:1,2019-01-01T01:30:00Z,27.8398,-97.0727,0.0,0.9,167.0,1.1,'11111222,11111222,11111222' 
TCOON,ioos:station:TCOON:009:1,2019-01-01T01:36:00Z,27.8398,-97.0727,0.0,1.1,191.0,1.3,'11111222,11111222,11111222' 
TCOON,ioos:station:TCOON:009:1,2019-01-01T01:42:00Z,27.8398,-97.0727,0.0,1.2,198.0,1.4,'11111222,11111222,11111222' 
TCOON,ioos:station:TCOON:009:1,2019-01-01T01:48:00Z,27.8398,-97.0727,0.0,0.9,208.0,1.3,'11111222,11111222,11111222' 
TCOON,ioos:station:TCOON:009:1,2019-01-01T01:54:00Z,27.8398,-97.0727,0.0,0.8,202.0,1.2,'11111222,11111222,11111222' 
TCOON,ioos:station:TCOON:009:1,2019-01-01T02:00:00Z,27.8398,-97.0727,0.0,0.1,197.0,0.6,'11111222,11111222,11111222' 
TCOON,ioos:station:TCOON:009:1,2019-01-01T02:06:00Z,27.8398,-97.0727,0.0,0.0,167.0,0.6,'11111222,11111222,11111222' 
TCOON,ioos:station:TCOON:009:1,2019-01-01T02:12:00Z,27.8398,-97.0727,0.0,0.5,167.0,0.8,'11111222,11111222,11111222' 
TCOON,ioos:station:TCOON:009:1,2019-01-01T02:18:00Z,27.8398,-97.0727,0.0,1.3,183.0,1.6,'11111222,11111222,11111222' 
TCOON,ioos:station:TCOON:009:1,2019-01-01T02:24:00Z,27.8398,-97.0727,0.0,1.3,183.0,1.6,'1111122,1111122,1111122' 
TCOON,ioos:station:TCOON:009:1,2019-01-01T02:30:00Z,27.8398,-97.0727,0.0,1.3,165.0,1.8,'11111222,11111222,11111222' 
TCOON,ioos:station:TCOON:009:1,2019-01-01T02:36:00Z,27.8398,-97.0727,0.0,2.0,160.0,2.1,'11111222,11111222,11111222' 
TCOON,ioos:station:TCOON:009:1,2019-01-01T02:42:00Z,27.8398,-97.0727,0.0,1.4,161.0,2.0,'11111222,11111222,11111222' 
TCOON,ioos:station:TCOON:009:1,2019-01-01T02:48:00Z,27.8398,-97.0727,0.0,0.7,179.0,1.3,'11111222,11111222,11111222' 
TCOON,ioos:station:TCOON:009:1,2019-01-01T02:54:00Z,27.8398,-97.0727,0.0,0.3,168.0,0.9,'11111222,11111222,11111222' 
TCOON,ioos:station:TCOON:009:1,2019-01-01T03:00:00Z,27.8398,-97.0727,0.0,1.1,165.0,1.2,'11111222,11111222,11111222' 
TCOON,ioos:station:TCOON:009:1,2019-01-01T03:06:00Z,27.8398,-97.0727,0.0,1.5,164.0,1.5,'11111222,11111222,11111222' 
TCOON,ioos:station:TCOON:009:1,2019-01-01T03:12:00Z,27.8398,-97.0727,0.0,1.4,157.0,1.8,'11111222,11111222,11111222' 
TCOON,ioos:station:TCOON:009:1,2019-01-01T03:18:00Z,27.8398,-97.0727,0.0,1.4,156.0,1.5,'11111222,11111222,11111222' 
TCOON,ioos:station:TCOON:009:1,2019-01-01T03:24:00Z,27.8398,-97.0727,0.0,1.4,156.0,1.5,'1111122,1111122,1111122' 
TCOON,ioos:station:TCOON:009:1,2019-01-01T03:30:00Z,27.8398,-97.0727,0.0,1.1,157.0,1.5,'11111222,11111222,11111222' 
TCOON,ioos:station:TCOON:009:1,2019-01-01T03:36:00Z,27.8398,-97.0727,0.0,1.3,158.0,1.5,'11111222,11111222,11111222' 
TCOON,ioos:station:TCOON:009:1,2019-01-01T03:42:00Z,27.8398,-97.0727,0.0,0.8,171.0,1.5,'11111222,11111222,11111222' 
TCOON,ioos:station:TCOON:009:1,2019-01-01T03:48:00Z,27.8398,-97.0727,0.0,0.9,182.0,1.0,'11111222,11111222,11111222' 
TCOON,ioos:station:TCOON:009:1,2019-01-01T03:54:00Z,27.8398,-97.0727,0.0,1.5,162.0,1.6,'11111222,11111222,11111222' 
TCOON,ioos:station:TCOON:009:1,2019-01-01T04:00:00Z,27.8398,-97.0727,0.0,1.9,163.0,2.0,'11111222,11111222,11111222' 
TCOON,ioos:station:TCOON:009:1,2019-01-01T04:06:00Z,27.8398,-97.0727,0.0,1.2,156.0,2.0,'11111222,11111222,11111222' 
TCOON,ioos:station:TCOON:009:1,2019-01-01T04:12:00Z,27.8398,-97.0727,0.0,1.3,157.0,1.5,'11111222,11111222,11111222' 
TCOON,ioos:station:TCOON:009:1,2019-01-01T04:18:00Z,27.8398,-97.0727,0.0,0.9,143.0,1.4,'11111222,11111222,11111222' 
TCOON,ioos:station:TCOON:009:1,2019-01-01T04:24:00Z,27.8398,-97.0727,0.0,0.9,143.0,1.4,'1111122,1111122,1111122' 
TCOON,ioos:station:TCOON:009:1,2019-01-01T04:30:00Z,27.8398,-97.0727,0.0,0.4,30.0,0.6,'11111222,11111222,11111222' 
TCOON,ioos:station:TCOON:009:1,2019-01-01T04:36:00Z,27.8398,-97.0727,0.0,0.7,39.0,1.1,'11111222,11111222,11111222' 
TCOON,ioos:station:TCOON:009:1,2019-01-01T04:42:00Z,27.8398,-97.0727,0.0,0.6,164.0,0.7,'11111222,11111222,11111222' 
TCOON,ioos:station:TCOON:009:1,2019-01-01T04:48:00Z,27.8398,-97.0727,0.0,0.0,170.0,0.6,'11111222,11111222,11111222' 
TCOON,ioos:station:TCOON:009:1,2019-01-01T04:54:00Z,27.8398,-97.0727,0.0,0.0,170.0,0.0,'11111222,11111222,11111222' 
TCOON,ioos:station:TCOON:009:1,2019-01-01T05:00:00Z,27.8398,-97.0727,0.0,0.0,170.0,0.0,'11111222,11111222,11111222' 
TCOON,ioos:station:TCOON:009:1,2019-01-01T05:06:00Z,27.8398,-97.0727,0.0,0.5,170.0,0.6,'11111222,11111222,11111222' 
TCOON,ioos:station:TCOON:009:1,2019-01-01T05:12:00Z,27.8398,-97.0727,0.0,0.6,0.0,0.7,'11111222,11111222,11111222' 
TCOON,ioos:station:TCOON:009:1,2019-01-01T05:18:00Z,27.8398,-97.0727,0.0,0.4,313.0,0.8,'11111222,11111222,11111222' 
TCOON,ioos:station:TCOON:009:1,2019-01-01T05:24:00Z,27.8398,-97.0727,0.0,0.4,313.0,0.8,'1111122,1111122,1111122' 
TCOON,ioos:station:TCOON:009:1,2019-01-01T05:30:00Z,27.8398,-97.0727,0.0,0.0,314.0,0.1,'11111222,11111222,11111222' 
TCOON,ioos:station:TCOON:009:1,2019-01-01T05:36:00Z,27.8398,-97.0727,0.0,0.8,168.0,0.8,'11111222,11111222,11111222' 
TCOON,ioos:station:TCOON:009:1,2019-01-01T05:42:00Z,27.8398,-97.0727,0.0,0.7,133.0,0.8,'11111222,11111222,11111222' 
TCOON,ioos:station:TCOON:009:1,2019-01-01T05:48:00Z,27.8398,-97.0727,0.0,0.7,148.0,0.8,'11111222,11111222,11111222' 
TCOON,ioos:station:TCOON:009:1,2019-01-01T05:54:00Z,27.8398,-97.0727,0.0,1.1,160.0,1.2,'11111222,11111222,11111222' 
TCOON,ioos:station:TCOON:009:1,2019-01-01T06:00:00Z,27.8398,-97.0727,0.0,1.7,148.0,1.9,'11111222,11111222,11111222' 
TCOON,ioos:station:TCOON:009:1,2019-01-01T06:06:00Z,27.8398,-97.0727,0.0,1.3,122.0,1.9,'11111222,11111222,11111222' 
TCOON,ioos:station:TCOON:009:1,2019-01-01T06:12:00Z,27.8398,-97.0727,0.0,1.1,22.0,1.7,'11111222,11111222,11111222' 
TCOON,ioos:station:TCOON:009:1,2019-01-01T06:18:00Z,27.8398,-97.0727,0.0,1.0,41.0,1.2,'11111222,11111222,11111222' 
TCOON,ioos:station:TCOON:009:1,2019-01-01T06:24:00Z,27.8398,-97.0727,0.0,1.0,41.0,1.2,'1111122,1111122,1111122' 
TCOON,ioos:station:TCOON:009:1,2019-01-01T06:30:00Z,27.8398,-97.0727,0.0,1.3,343.0,1.9,'11111222,11111222,11111222' 
TCOON,ioos:station:TCOON:009:1,2019-01-01T06:36:00Z,27.8398,-97.0727,0.0,0.3,120.0,0.9,'11111222,11111222,11111222' 
TCOON,ioos:station:TCOON:009:1,2019-01-01T06:42:00Z,27.8398,-97.0727,0.0,0.1,91.0,1.0,'11111222,11111222,11111222' 
TCOON,ioos:station:TCOON:009:1,2019-01-01T06:48:00Z,27.8398,-97.0727,0.0,0.0,82.0,0.0,'11111222,11111222,11111222' 
TCOON,ioos:station:TCOON:009:1,2019-01-01T06:54:00Z,27.8398,-97.0727,0.0,0.2,37.0,0.6,'11111222,11111222,11111222' 
TCOON,ioos:station:TCOON:009:1,2019-01-01T07:00:00Z,27.8398,-97.0727,0.0,0.6,15.0,0.8,'11111222,11111222,11111222' 
TCOON,ioos:station:TCOON:009:1,2019-01-01T07:06:00Z,27.8398,-97.0727,0.0,0.1,8.0,0.7,'11111222,11111222,11111222' 
TCOON,ioos:station:TCOON:009:1,2019-01-01T07:12:00Z,27.8398,-97.0727,0.0,0.4,326.0,0.9,'11111222,11111222,11111222' 
TCOON,ioos:station:TCOON:009:1,2019-01-01T07:18:00Z,27.8398,-97.0727,0.0,0.7,59.0,1.0,'11111222,11111222,11111222' 
TCOON,ioos:station:TCOON:009:1,2019-01-01T07:24:00Z,27.8398,-97.0727,0.0,0.7,59.0,1.0,'1111122,1111122,1111122' 
TCOON,ioos:station:TCOON:009:1,2019-01-01T07:30:00Z,27.8398,-97.0727,0.0,0.5,44.0,1.0,'11111222,11111222,11111222' 
TCOON,ioos:station:TCOON:009:1,2019-01-01T07:36:00Z,27.8398,-97.0727,0.0,0.0,58.0,0.6,'11111222,11111222,11111222' 
TCOON,ioos:station:TCOON:009:1,2019-01-01T07:42:00Z,27.8398,-97.0727,0.0,0.0,64.0,0.0,'11111222,11111222,11111222' 
TCOON,ioos:station:TCOON:009:1,2019-01-01T07:48:00Z,27.8398,-97.0727,0.0,0.6,62.0,0.7,'11111222,11111222,11111222' 
TCOON,ioos:station:TCOON:009:1,2019-01-01T07:54:00Z,27.8398,-97.0727,0.0,0.4,46.0,0.8,'11111222,11111222,11111222' 
TCOON,ioos:station:TCOON:009:1,2019-01-01T08:00:00Z,27.8398,-97.0727,0.0,0.7,38.0,0.9,'11111222,11111222,11111222' 
TCOON,ioos:station:TCOON:009:1,2019-01-01T08:06:00Z,27.8398,-97.0727,0.0,2.3,26.0,2.5,'11111222,11111222,11111222' 
TCOON,ioos:station:TCOON:009:1,2019-01-01T08:12:00Z,27.8398,-97.0727,0.0,1.5,38.0,2.4,'11111222,11111222,11111222' 
TCOON,ioos:station:TCOON:009:1,2019-01-01T08:18:00Z,27.8398,-97.0727,0.0,2.1,32.0,2.4,'11111222,11111222,11111222' 
TCOON,ioos:station:TCOON:009:1,2019-01-01T08:24:00Z,27.8398,-97.0727,0.0,2.1,32.0,2.4,'1111122,1111122,1111122' 
TCOON,ioos:station:TCOON:009:1,2019-01-01T08:30:00Z,27.8398,-97.0727,0.0,2.0,34.0,2.3,'11111222,11111222,11111222' 
TCOON,ioos:station:TCOON:009:1,2019-01-01T08:36:00Z,27.8398,-97.0727,0.0,2.2,43.0,2.6,'11111222,11111222,11111222' 
TCOON,ioos:station:TCOON:009:1,2019-01-01T08:42:00Z,27.8398,-97.0727,0.0,2.5,25.0,2.9,'11111222,11111222,11111222' 
TCOON,ioos:station:TCOON:009:1,2019-01-01T08:48:00Z,27.8398,-97.0727,0.0,2.2,21.0,3.0,'11111222,11111222,11111222' 
TCOON,ioos:station:TCOON:009:1,2019-01-01T08:54:00Z,27.8398,-97.0727,0.0,2.1,24.0,2.5,'11111222,11111222,11111222' 
TCOON,ioos:station:TCOON:009:1,2019-01-01T09:00:00Z,27.8398,-97.0727,0.0,2.1,31.0,2.5,'11111222,11111222,11111222' 
TCOON,ioos:station:TCOON:009:1,2019-01-01T09:06:00Z,27.8398,-97.0727,0.0,1.9,39.0,2.5,'11111222,11111222,11111222' 
TCOON,ioos:station:TCOON:009:1,2019-01-01T09:12:00Z,27.8398,-97.0727,0.0,2.4,26.0,2.6,'11111222,11111222,11111222' 
TCOON,ioos:station:TCOON:009:1,2019-01-01T09:18:00Z,27.8398,-97.0727,0.0,1.6,34.0,3.2,'11111222,11111222,11111222' 
TCOON,ioos:station:TCOON:009:1,2019-01-01T09:24:00Z,27.8398,-97.0727,0.0,1.6,34.0,3.2,'1111122,1111122,1111122' 
TCOON,ioos:station:TCOON:009:1,2019-01-01T09:30:00Z,27.8398,-97.0727,0.0,1.5,60.0,2.7,'11111222,11111222,11111222' 
TCOON,ioos:station:TCOON:009:1,2019-01-01T09:36:00Z,27.8398,-97.0727,0.0,2.0,37.0,2.7,'11111222,11111222,11111222' 
TCOON,ioos:station:TCOON:009:1,2019-01-01T09:42:00Z,27.8398,-97.0727,0.0,1.9,39.0,2.7,'11111222,11111222,11111222' 
TCOON,ioos:station:TCOON:009:1,2019-01-01T09:48:00Z,27.8398,-97.0727,0.0,2.4,25.0,2.8,'11111222,11111222,11111222' 
TCOON,ioos:station:TCOON:009:1,2019-01-01T09:54:00Z,27.8398,-97.0727,0.0,2.6,41.0,3.6,'11111222,11111222,11111222' 
TCOON,ioos:station:TCOON:009:1,2019-01-01T10:00:00Z,27.8398,-97.0727,0.0,2.8,28.0,4.0,'11111222,11111222,11111222' 
TCOON,ioos:station:TCOON:009:1,2019-01-01T10:06:00Z,27.8398,-97.0727,0.0,2.5,29.0,3.5,'11111222,11111222,11111222' 
TCOON,ioos:station:TCOON:009:1,2019-01-01T10:12:00Z,27.8398,-97.0727,0.0,2.6,25.0,3.4,'11111222,11111222,11111222' 
TCOON,ioos:station:TCOON:009:1,2019-01-01T10:18:00Z,27.8398,-97.0727,0.0,2.6,14.0,2.9,'11111222,11111222,11111222' 
TCOON,ioos:station:TCOON:009:1,2019-01-01T10:24:00Z,27.8398,-97.0727,0.0,2.6,14.0,2.9,'1111122,1111122,1111122' 
TCOON,ioos:station:TCOON:009:1,2019-01-01T10:30:00Z,27.8398,-97.0727,0.0,2.3,26.0,2.8,'11111222,11111222,11111222' 
TCOON,ioos:station:TCOON:009:1,2019-01-01T10:36:00Z,27.8398,-97.0727,0.0,3.7,14.0,4.2,'11111222,11111222,11111222' 
TCOON,ioos:station:TCOON:009:1,2019-01-01T10:42:00Z,27.8398,-97.0727,0.0,2.2,33.0,4.4,'11111222,11111222,11111222' 
TCOON,ioos:station:TCOON:009:1,2019-01-01T10:48:00Z,27.8398,-97.0727,0.0,2.6,30.0,3.1,'11111222,11111222,11111222' 
TCOON,ioos:station:TCOON:009:1,2019-01-01T10:54:00Z,27.8398,-97.0727,0.0,2.9,41.0,4.0,'11111222,11111222,11111222' 
TCOON,ioos:station:TCOON:009:1,2019-01-01T11:00:00Z,27.8398,-97.0727,0.0,2.5,43.0,3.6,'11111222,11111222,11111222' 
TCOON,ioos:station:TCOON:009:1,2019-01-01T11:06:00Z,27.8398,-97.0727,0.0,3.0,37.0,3.7,'11111222,11111222,11111222' 
TCOON,ioos:station:TCOON:009:1,2019-01-01T11:12:00Z,27.8398,-97.0727,0.0,3.5,33.0,4.3,'11111222,11111222,11111222' 
TCOON,ioos:station:TCOON:009:1,2019-01-01T11:18:00Z,27.8398,-97.0727,0.0,3.3,35.0,4.7,'11111222,11111222,11111222' 
TCOON,ioos:station:TCOON:009:1,2019-01-01T11:24:00Z,27.8398,-97.0727,0.0,3.3,35.0,4.7,'1111122,1111122,1111122' 
TCOON,ioos:station:TCOON:009:1,2019-01-01T11:30:00Z,27.8398,-97.0727,0.0,4.2,44.0,5.2,'11111222,11111222,11111222' 
TCOON,ioos:station:TCOON:009:1,2019-01-01T11:36:00Z,27.8398,-97.0727,0.0,4.4,44.0,5.2,'11111222,11111222,11111222' 
TCOON,ioos:station:TCOON:009:1,2019-01-01T11:42:00Z,27.8398,-97.0727,0.0,4.2,45.0,5.0,'11111222,11111222,11111222' 
TCOON,ioos:station:TCOON:009:1,2019-01-01T11:48:00Z,27.8398,-97.0727,0.0,3.5,51.0,4.7,'11111222,11111222,11111222' 
TCOON,ioos:station:TCOON:009:1,2019-01-01T11:54:00Z,27.8398,-97.0727,0.0,3.1,58.0,4.2,'11111222,11111222,11111222' 
TCOON,ioos:station:TCOON:009:1,2019-01-01T12:00:00Z,27.8398,-97.0727,0.0,3.1,54.0,3.9,'11111222,11111222,11111222' 
TCOON,ioos:station:TCOON:009:1,2019-01-01T12:06:00Z,27.8398,-97.0727,0.0,2.8,52.0,4.0,'11111222,11111222,11111222' 
TCOON,ioos:station:TCOON:009:1,2019-01-01T12:12:00Z,27.8398,-97.0727,0.0,3.1,55.0,3.5,'11111222,11111222,11111222' 
TCOON,ioos:station:TCOON:009:1,2019-01-01T12:18:00Z,27.8398,-97.0727,0.0,3.2,55.0,3.9,'11111222,11111222,11111222' 
TCOON,ioos:station:TCOON:009:1,2019-01-01T12:24:00Z,27.8398,-97.0727,0.0,3.2,55.0,3.9,'1111122,1111122,1111122' 
TCOON,ioos:station:TCOON:009:1,2019-01-01T12:30:00Z,27.8398,-97.0727,0.0,3.6,59.0,4.5,'11111222,11111222,11111222' 
TCOON,ioos:station:TCOON:009:1,2019-01-01T12:36:00Z,27.8398,-97.0727,0.0,4.2,62.0,5.0,'11111222,11111222,11111222' 
TCOON,ioos:station:TCOON:009:1,2019-01-01T12:42:00Z,27.8398,-97.0727,0.0,4.6,59.0,5.8,'11111222,11111222,11111222' 
TCOON,ioos:station:TCOON:009:1,2019-01-01T12:48:00Z,27.8398,-97.0727,0.0,3.6,59.0,5.2,'11111222,11111222,11111222' 
TCOON,ioos:station:TCOON:009:1,2019-01-01T12:54:00Z,27.8398,-97.0727,0.0,3.7,65.0,4.4,'11111222,11111222,11111222' 
TCOON,ioos:station:TCOON:009:1,2019-01-01T13:00:00Z,27.8398,-97.0727,0.0,4.0,58.0,4.8,'11111222,11111222,11111222' 
TCOON,ioos:station:TCOON:009:1,2019-01-01T13:06:00Z,27.8398,-97.0727,0.0,3.9,54.0,4.8,'11111222,11111222,11111222' 
TCOON,ioos:station:TCOON:009:1,2019-01-01T13:12:00Z,27.8398,-97.0727,0.0,3.7,60.0,5.0,'11111222,11111222,11111222' 
TCOON,ioos:station:TCOON:009:1,2019-01-01T13:18:00Z,27.8398,-97.0727,0.0,3.0,60.0,4.3,'11111222,11111222,11111222' 
TCOON,ioos:station:TCOON:009:1,2019-01-01T13:24:00Z,27.8398,-97.0727,0.0,3.0,60.0,4.3,'1111122,1111122,1111122' 
TCOON,ioos:station:TCOON:009:1,2019-01-01T13:30:00Z,27.8398,-97.0727,0.0,2.9,56.0,3.5,'11111222,11111222,11111222' 
TCOON,ioos:station:TCOON:009:1,2019-01-01T13:36:00Z,27.8398,-97.0727,0.0,2.9,45.0,3.7,'11111222,11111222,11111222' 
TCOON,ioos:station:TCOON:009:1,2019-01-01T13:42:00Z,27.8398,-97.0727,0.0,3.4,48.0,4.3,'11111222,11111222,11111222' 
TCOON,ioos:station:TCOON:009:1,2019-01-01T13:48:00Z,27.8398,-97.0727,0.0,3.5,46.0,4.1,'11111222,11111222,11111222' 
TCOON,ioos:station:TCOON:009:1,2019-01-01T13:54:00Z,27.8398,-97.0727,0.0,3.6,34.0,5.0,'11111222,11111222,11111222' 
TCOON,ioos:station:TCOON:009:1,2019-01-01T14:00:00Z,27.8398,-97.0727,0.0,3.7,38.0,4.7,'11111222,11111222,11111222' 
TCOON,ioos:station:TCOON:009:1,2019-01-01T14:06:00Z,27.8398,-97.0727,0.0,4.3,40.0,5.9,'11111222,11111222,11111222' 
TCOON,ioos:station:TCOON:009:1,2019-01-01T14:12:00Z,27.8398,-97.0727,0.0,4.9,46.0,6.3,'11111222,11111222,11111222' 
TCOON,ioos:station:TCOON:009:1,2019-01-01T14:18:00Z,27.8398,-97.0727,0.0,5.0,44.0,5.8,'11111222,11111222,11111222' 
TCOON,ioos:station:TCOON:009:1,2019-01-01T14:24:00Z,27.8398,-97.0727,0.0,5.0,44.0,5.8,'1111122,1111122,1111122' 
TCOON,ioos:station:TCOON:009:1,2019-01-01T14:30:00Z,27.8398,-97.0727,0.0,5.1,48.0,6.1,'11111222,11111222,11111222' 
TCOON,ioos:station:TCOON:009:1,2019-01-01T14:36:00Z,27.8398,-97.0727,0.0,5.8,50.0,6.9,'11111222,11111222,11111222' 
TCOON,ioos:station:TCOON:009:1,2019-01-01T14:42:00Z,27.8398,-97.0727,0.0,5.3,50.0,7.4,'11111222,11111222,11111222' 
TCOON,ioos:station:TCOON:009:1,2019-01-01T14:48:00Z,27.8398,-97.0727,0.0,6.3,46.0,7.4,'11111222,11111222,11111222' 
TCOON,ioos:station:TCOON:009:1,2019-01-01T14:54:00Z,27.8398,-97.0727,0.0,5.0,43.0,7.0,'11111222,11111222,11111222' 
TCOON,ioos:station:TCOON:009:1,2019-01-01T15:00:00Z,27.8398,-97.0727,0.0,6.0,41.0,7.5,'11111222,11111222,11111222' 
TCOON,ioos:station:TCOON:009:1,2019-01-01T15:06:00Z,27.8398,-97.0727,0.0,5.4,38.0,6.6,'11111222,11111222,11111222' 
TCOON,ioos:station:TCOON:009:1,2019-01-01T15:12:00Z,27.8398,-97.0727,0.0,6.6,42.0,7.8,'11111222,11111222,11111222' 
TCOON,ioos:station:TCOON:009:1,2019-01-01T15:18:00Z,27.8398,-97.0727,0.0,5.8,44.0,7.8,'11111222,11111222,11111222' 
TCOON,ioos:station:TCOON:009:1,2019-01-01T15:24:00Z,27.8398,-97.0727,0.0,5.8,44.0,7.8,'1111122,1111122,1111122' 
TCOON,ioos:station:TCOON:009:1,2019-01-01T15:30:00Z,27.8398,-97.0727,0.0,6.2,44.0,7.5,'11111222,11111222,11111222' 
TCOON,ioos:station:TCOON:009:1,2019-01-01T15:36:00Z,27.8398,-97.0727,0.0,5.6,52.0,7.2,'11111222,11111222,11111222' 
TCOON,ioos:station:TCOON:009:1,2019-01-01T15:42:00Z,27.8398,-97.0727,0.0,6.1,47.0,7.6,'11111222,11111222,11111222' 
TCOON,ioos:station:TCOON:009:1,2019-01-01T15:48:00Z,27.8398,-97.0727,0.0,6.5,54.0,7.8,'11111222,11111222,11111222' 
TCOON,ioos:station:TCOON:009:1,2019-01-01T15:54:00Z,27.8398,-97.0727,0.0,6.3,51.0,7.6,'11111222,11111222,11111222' 
TCOON,ioos:station:TCOON:009:1,2019-01-01T16:00:00Z,27.8398,-97.0727,0.0,5.8,50.0,8.2,'11111222,11111222,11111222' 
TCOON,ioos:station:TCOON:009:1,2019-01-01T16:06:00Z,27.8398,-97.0727,0.0,6.3,46.0,8.3,'11111222,11111222,11111222' 
TCOON,ioos:station:TCOON:009:1,2019-01-01T16:12:00Z,27.8398,-97.0727,0.0,6.5,46.0,8.2,'11111222,11111222,11111222' 
TCOON,ioos:station:TCOON:009:1,2019-01-01T16:18:00Z,27.8398,-97.0727,0.0,6.8,50.0,9.0,'11111222,11111222,11111222' 
TCOON,ioos:station:TCOON:009:1,2019-01-01T16:24:00Z,27.8398,-97.0727,0.0,6.8,50.0,9.0,'1111122,1111122,1111122' 
TCOON,ioos:station:TCOON:009:1,2019-01-01T16:30:00Z,27.8398,-97.0727,0.0,5.9,52.0,7.6,'11111222,11111222,11111222' 
TCOON,ioos:station:TCOON:009:1,2019-01-01T16:36:00Z,27.8398,-97.0727,0.0,6.4,51.0,8.0,'11111222,11111222,11111222' 
TCOON,ioos:station:TCOON:009:1,2019-01-01T16:42:00Z,27.8398,-97.0727,0.0,6.6,51.0,8.4,'11111222,11111222,11111222' 
TCOON,ioos:station:TCOON:009:1,2019-01-01T16:48:00Z,27.8398,-97.0727,0.0,8.1,51.0,9.1,'11111222,11111222,11111222' 
TCOON,ioos:station:TCOON:009:1,2019-01-01T16:54:00Z,27.8398,-97.0727,0.0,6.6,50.0,8.8,'11111222,11111222,11111222' 
TCOON,ioos:station:TCOON:009:1,2019-01-01T17:00:00Z,27.8398,-97.0727,0.0,7.7,49.0,8.5,'11111222,11111222,11111222' 
TCOON,ioos:station:TCOON:009:1,2019-01-01T17:06:00Z,27.8398,-97.0727,0.0,6.6,49.0,7.7,'11111222,11111222,11111222' 
TCOON,ioos:station:TCOON:009:1,2019-01-01T17:12:00Z,27.8398,-97.0727,0.0,6.8,53.0,8.3,'11111222,11111222,11111222' 
TCOON,ioos:station:TCOON:009:1,2019-01-01T17:18:00Z,27.8398,-97.0727,0.0,6.4,57.0,7.9,'11111222,11111222,11111222' 
TCOON,ioos:station:TCOON:009:1,2019-01-01T17:24:00Z,27.8398,-97.0727,0.0,6.4,57.0,7.9,'1111122,1111122,1111122' 
TCOON,ioos:station:TCOON:009:1,2019-01-01T17:30:00Z,27.8398,-97.0727,0.0,6.6,56.0,9.1,'11111222,11111222,11111222' 
TCOON,ioos:station:TCOON:009:1,2019-01-01T17:36:00Z,27.8398,-97.0727,0.0,7.1,50.0,8.4,'11111222,11111222,11111222' 
TCOON,ioos:station:TCOON:009:1,2019-01-01T17:42:00Z,27.8398,-97.0727,0.0,7.0,45.0,8.6,'11111222,11111222,11111222' 
TCOON,ioos:station:TCOON:009:1,2019-01-01T17:48:00Z,27.8398,-97.0727,0.0,8.1,48.0,9.2,'11111222,11111222,11111222' 
TCOON,ioos:station:TCOON:009:1,2019-01-01T17:54:00Z,27.8398,-97.0727,0.0,8.0,52.0,9.8,'11111222,11111222,11111222' 
TCOON,ioos:station:TCOON:009:1,2019-01-01T18:00:00Z,27.8398,-97.0727,0.0,7.4,61.0,9.6,'11111222,11111222,11111222' 
TCOON,ioos:station:TCOON:009:1,2019-01-01T18:06:00Z,27.8398,-97.0727,0.0,7.8,62.0,9.1,'11111222,11111222,11111222' 
TCOON,ioos:station:TCOON:009:1,2019-01-01T18:12:00Z,27.8398,-97.0727,0.0,6.9,58.0,9.1,'11111222,11111222,11111222' 
TCOON,ioos:station:TCOON:009:1,2019-01-01T18:18:00Z,27.8398,-97.0727,0.0,7.9,61.0,9.2,'11111222,11111222,11111222' 
TCOON,ioos:station:TCOON:009:1,2019-01-01T18:24:00Z,27.8398,-97.0727,0.0,7.9,61.0,9.2,'1111122,1111122,1111122' 
TCOON,ioos:station:TCOON:009:1,2019-01-01T18:30:00Z,27.8398,-97.0727,0.0,9.5,67.0,10.6,'11111222,11111222,11111222' 
TCOON,ioos:station:TCOON:009:1,2019-01-01T18:36:00Z,27.8398,-97.0727,0.0,9.7,67.0,12.0,'11111222,11111222,11111222' 
TCOON,ioos:station:TCOON:009:1,2019-01-01T18:42:00Z,27.8398,-97.0727,0.0,10.1,64.0,11.6,'11111222,11111222,11111222' 
TCOON,ioos:station:TCOON:009:1,2019-01-01T18:48:00Z,27.8398,-97.0727,0.0,8.2,64.0,12.1,'11111222,11111222,11111222' 
TCOON,ioos:station:TCOON:009:1,2019-01-01T18:54:00Z,27.8398,-97.0727,0.0,8.3,66.0,10.7,'11111222,11111222,11111222' 
TCOON,ioos:station:TCOON:009:1,2019-01-01T19:00:00Z,27.8398,-97.0727,0.0,8.1,63.0,9.8,'11111222,11111222,11111222' 
TCOON,ioos:station:TCOON:009:1,2019-01-01T19:06:00Z,27.8398,-97.0727,0.0,8.1,72.0,10.5,'11111222,11111222,11111222' 
TCOON,ioos:station:TCOON:009:1,2019-01-01T19:12:00Z,27.8398,-97.0727,0.0,8.9,74.0,11.4,'11111222,11111222,11111222' 
TCOON,ioos:station:TCOON:009:1,2019-01-01T19:18:00Z,27.8398,-97.0727,0.0,9.8,75.0,11.3,'11111222,11111222,11111222' 
TCOON,ioos:station:TCOON:009:1,2019-01-01T19:24:00Z,27.8398,-97.0727,0.0,9.8,75.0,11.3,'1111122,1111122,1111122' 
TCOON,ioos:station:TCOON:009:1,2019-01-01T19:30:00Z,27.8398,-97.0727,0.0,9.4,77.0,12.0,'11111222,11111222,11111222' 
TCOON,ioos:station:TCOON:009:1,2019-01-01T19:36:00Z,27.8398,-97.0727,0.0,8.6,71.0,11.4,'11111222,11111222,11111222' 
TCOON,ioos:station:TCOON:009:1,2019-01-01T19:42:00Z,27.8398,-97.0727,0.0,8.9,74.0,11.1,'11111222,11111222,11111222' 
TCOON,ioos:station:TCOON:009:1,2019-01-01T19:48:00Z,27.8398,-97.0727,0.0,9.4,74.0,11.6,'11111222,11111222,11111222' 
TCOON,ioos:station:TCOON:009:1,2019-01-01T19:54:00Z,27.8398,-97.0727,0.0,8.8,79.0,11.4,'11111222,11111222,11111222' 
TCOON,ioos:station:TCOON:009:1,2019-01-01T20:00:00Z,27.8398,-97.0727,0.0,8.1,71.0,10.0,'11111222,11111222,11111222' 
TCOON,ioos:station:TCOON:009:1,2019-01-01T20:06:00Z,27.8398,-97.0727,0.0,8.6,76.0,10.4,'11111222,11111222,11111222' 
TCOON,ioos:station:TCOON:009:1,2019-01-01T20:12:00Z,27.8398,-97.0727,0.0,8.1,68.0,9.5,'11111222,11111222,11111222' 
TCOON,ioos:station:TCOON:009:1,2019-01-01T20:18:00Z,27.8398,-97.0727,0.0,7.7,69.0,9.1,'11111222,11111222,11111222' 
TCOON,ioos:station:TCOON:009:1,2019-01-01T20:24:00Z,27.8398,-97.0727,0.0,7.7,69.0,9.1,'1111122,1111122,1111122' 